Weather History for Pittsfield, MA

Change the Weather History Date:

Saturday, September 28, 2013

  Actual Average Record
Temperature  
Mean Temperature 58 °F 54 °F  
Max Temperature 72 °F 64 °F 87 °F (1936)
Min Temperature 44 °F 43 °F 27 °F (1947)
Degree Days  
Heating Degree Days 7 12  
Month to date heating degree days 235 190  
Since 1 July heating degree days 291 268  
Cooling Degree Days 0 0  
Month to date cooling degree days 33 16  
Year to date cooling degree days 433 286  
Growing Degree Days 8 (Base 50)    
Moisture  
Dew Point 48 °F    
Average Humidity 71    
Maximum Humidity 100    
Minimum Humidity 41    
Precipitation  
Precipitation 0.00 in 0.17 in 1.87 in (2004)
Month to date precipitation 3.69 3.61  
Year to date precipitation 31.79 33.39  
Sea Level Pressure  
Sea Level Pressure 30.29 in    
Wind  
Wind Speed 1 mph (SSE)    
Max Wind Speed 7 mph    
Max Gust Speed -    
Visibility 4 miles    
Events Fog , Rain    
T = Trace of Precipitation, MM = Missing Value Source: NWS Daily Summary

Daily Weather History Graph

Daily Weather History Graph

Search for Another Location

Airport:

Trip Planner

Search our weather history database for the weather conditions in past years. The results will help you decide how hot, cold, wet, or windy it might be!

Date:

Astronomy

Sep. 28, 2013 Rise Set
Actual Time 6:47 AM EDT 6:39 PM EDT
Civil Twilight 6:19 AM EDT 7:07 PM EDT
Nautical Twilight 5:46 AM EDT 7:40 PM EDT
Astronomical Twilight 5:13 AM EDT 8:13 PM EDT
Moon 12:26 AM EDT (9/28) 3:02 PM EDT (9/28)
Length of Visible Light 12h 48m
Length of Day
11h 52m
Last Quarter, 36% of the Moon is Illuminated
Sep 28
Last Quarter
Oct 4
New
Oct 11
First Quarter
Oct 18
Full
Oct 26
Last Quarter

Hourly Weather History & Observations

Time (EDT) Temp. Dew Point Humidity Pressure Visibility Wind Dir Wind Speed Gust Speed Precip Events Conditions
12:01 AM 46.4 °F 44.6 °F 93% 30.29 in 0.2 mi Calm Calm - N/A Fog Fog
12:54 AM 46.9 °F 46.9 °F 100% 30.27 in 0.2 mi Calm Calm - 0.00 in Fog , Rain Light Rain
1:54 AM 46.9 °F 46.0 °F 97% 30.27 in 0.2 mi Calm Calm - 0.00 in Fog Fog
2:04 AM 46.4 °F 46.4 °F 100% 30.30 in 0.2 mi Calm Calm - N/A Fog Fog
2:25 AM 46.4 °F 46.4 °F 100% 30.30 in 0.2 mi Calm Calm - N/A Fog Fog
2:54 AM 46.0 °F 46.0 °F 100% 30.27 in 0.2 mi Calm Calm - N/A Fog Fog
3:54 AM 46.9 °F 46.0 °F 97% 30.27 in 0.2 mi Calm Calm - N/A Fog Fog
4:54 AM 46.0 °F 46.0 °F 100% 30.28 in 0.2 mi Calm Calm - N/A Fog Fog
5:54 AM 45.0 °F 45.0 °F 100% 30.30 in 0.2 mi Calm Calm - N/A Fog Fog
6:54 AM 45.0 °F 45.0 °F 100% 30.32 in 0.2 mi Calm Calm - 0.01 in Fog Fog
7:54 AM 45.0 °F 45.0 °F 100% 30.33 in 0.2 mi Calm Calm - N/A Fog Fog
8:01 AM 44.6 °F 44.6 °F 100% 30.34 in 0.2 mi Calm Calm - N/A Fog Fog
8:24 AM 46.4 °F 44.6 °F 93% 30.34 in 0.2 mi Calm Calm - N/A Fog Fog
8:46 AM 46.4 °F 46.4 °F 100% 30.35 in 0.2 mi Calm Calm - N/A Fog Fog
8:54 AM 46.0 °F 46.0 °F 100% 30.34 in 0.2 mi Calm Calm - N/A Fog Fog
9:35 AM 48.2 °F 48.2 °F 100% 30.35 in 1.0 mi Calm Calm - N/A   Mist
9:39 AM 48.2 °F 48.2 °F 100% 30.35 in 3.0 mi Calm Calm - N/A   Mostly Cloudy
9:54 AM 50.0 °F 48.9 °F 96% 30.34 in 10.0 mi Calm Calm - N/A   Partly Cloudy
10:54 AM 60.1 °F 51.1 °F 72% 30.32 in 10.0 mi Calm Calm - N/A   Clear
11:54 AM 66.9 °F 50.0 °F 54% 30.29 in 10.0 mi Calm Calm - N/A   Clear
12:54 PM 69.1 °F 50.0 °F 51% 30.27 in 10.0 mi Variable 4.6 mph - N/A   Clear
1:54 PM 68.0 °F 48.9 °F 50% 30.25 in 10.0 mi Calm Calm - N/A   Partly Cloudy
2:54 PM 71.1 °F 48.0 °F 44% 30.24 in 10.0 mi ENE 5.8 mph - N/A   Mostly Cloudy
3:54 PM 72.0 °F 46.9 °F 41% 30.23 in 10.0 mi Variable 3.5 mph - N/A   Overcast
4:54 PM 64.9 °F 54.0 °F 68% 30.24 in 10.0 mi SSW 3.5 mph - N/A   Clear
5:54 PM 62.1 °F 54.0 °F 75% 30.25 in 10.0 mi SSW 3.5 mph - N/A   Clear
6:54 PM 59.0 °F 52.0 °F 78% 30.25 in 10.0 mi Calm Calm - N/A   Mostly Cloudy
7:54 PM 54.0 °F 50.0 °F 86% 30.26 in 10.0 mi Calm Calm - N/A   Clear
8:54 PM 52.0 °F 48.9 °F 89% 30.26 in 10.0 mi Calm Calm - N/A   Clear
9:54 PM 50.0 °F 48.0 °F 93% 30.26 in 3.0 mi Calm Calm - N/A   Clear
10:54 PM 48.0 °F 46.9 °F 96% 30.24 in 1.2 mi ESE 3.5 mph - N/A   Clear
11:06 PM 48.2 °F 46.4 °F 93% 30.27 in 3.0 mi Calm Calm - N/A   Clear
11:54 PM 48.0 °F 46.9 °F 96% 30.22 in 6.0 mi Calm Calm - 0.00 in   Clear